Theta_e
289 293 292 291 290 289 289 290 291 291 290 291 292 294 295 294 293 293 293 292 292 292 291 290 289 287 289 294 295 295 296 298 299 300 301 303 304 306 317 323 324 326 325 327
292 290 289 290 289 289 290 291 291 291 291 291 292 293 295 294 293 292 292 292 291 291 291 290 289 288 286 286 292 294 294 295 296 297 299 300 302 304 304 320 324 325 325 323
292 288 288 289 290 291 290 290 290 290 291 292 292 294 296 296 294 293 292 291 291 290 289 289 289 288 287 286 286 290 293 293 294 295 297 299 300 302 303 305 321 323 324 324
289 288 288 289 289 289 291 289 289 290 292 296 293 297 295 296 295 294 292 291 290 290 289 288 288 287 287 287 285 286 291 293 293 294 296 296 298 300 302 303 312 323 324 325
288 288 288 288 288 288 291 289 290 291 292 292 294 294 297 295 294 293 292 291 290 289 288 288 287 287 287 286 285 285 287 291 293 294 294 294 294 296 300 303 304 317 323 324
288 287 288 288 288 288 288 290 291 292 293 297 293 292 296 296 294 292 291 290 289 289 288 288 287 287 286 286 288 288 286 287 291 292 293 294 294 295 298 301 305 306 318 324
288 288 287 287 288 288 290 291 298 298 299 298 292 291 296 295 292 291 290 289 289 288 288 287 287 286 286 285 286 288 287 286 288 291 294 294 294 294 295 299 303 306 311 321
292 295 287 287 287 288 288 289 296 298 296 294 290 293 298 294 291 290 289 289 289 288 288 287 286 286 285 285 285 286 288 287 286 288 290 293 293 293 293 295 300 304 309 317
291 289 286 287 287 288 287 290 287 289 287 288 293 293 293 293 292 290 290 289 288 288 287 287 286 286 285 286 286 285 286 287 287 285 287 290 291 292 293 294 297 302 309 313
285 291 286 287 287 287 287 288 289 288 293 295 293 291 294 294 294 291 290 289 288 288 287 287 286 286 286 286 286 286 286 286 287 287 287 287 288 290 291 292 294 299 305 310
285 287 288 286 287 288 286 287 287 287 288 291 291 295 294 293 292 290 289 289 288 288 287 287 286 286 285 285 285 286 286 286 287 286 286 287 287 288 290 291 291 295 299 303
286 287 289 288 285 284 286 287 288 290 289 287 288 290 290 290 290 289 288 288 288 288 287 286 286 285 284 284 283 284 285 285 286 286 286 286 286 287 288 289 290 292 295 298
286 287 292 288 285 284 285 286 287 285 285 287 289 293 288 288 289 288 287 287 287 287 287 286 286 286 285 284 283 283 282 283 284 285 286 286 286 286 286 287 288 290 293 295
286 285 288 296 291 286 285 286 286 287 288 288 287 291 292 291 290 289 288 287 286 287 287 286 286 286 286 285 284 283 282 281 281 282 283 284 286 286 286 286 286 287 289 291
288 287 283 285 286 286 286 286 286 287 287 287 291 291 292 291 290 288 287 286 286 287 287 286 285 285 285 285 284 284 283 282 282 281 281 281 282 284 286 286 286 286 287 288
282 287 279 282 285 285 285 285 285 286 287 287 288 288 289 288 287 287 287 287 286 287 287 286 285 285 285 284 284 284 283 283 282 281 281 281 281 280 282 284 284 285 286 286
284 286 284 288 282 283 285 284 286 286 285 286 287 289 290 289 288 288 287 286 286 286 286 286 285 285 285 284 284 283 283 282 282 282 281 281 281 280 280 280 282 283 283 285
282 283 285 286 281 290 291 285 285 286 287 286 287 287 287 287 287 286 286 286 286 286 286 285 285 285 285 284 284 283 282 282 282 282 281 281 280 280 280 280 280 280 283 283
285 285 286 286 283 286 290 284 283 283 287 287 287 287 286 286 284 286 287 286 286 286 285 285 285 285 284 284 284 282 281 281 281 281 281 281 281 280 280 280 281 281 280 281
286 286 286 276 284 289 289 283 282 282 288 289 286 287 286 285 287 289 286 285 285 285 285 285 285 285 285 284 284 283 282 281 280 280 280 280 280 280 279 279 279 280 280 280
284 285 285 284 284 284 284 283 282 287 292 285 284 286 286 286 287 285 284 285 285 285 285 284 284 284 284 284 284 282 281 281 280 279 279 278 278 278 279 278 277 278 279 279
284 284 284 285 284 284 284 282 286 291 287 285 285 285 285 285 285 284 284 284 284 284 284 284 284 284 284 284 283 281 280 279 279 279 278 277 277 276 276 277 277 277 277 278
285 287 286 286 286 285 282 286 285 285 285 286 285 285 284 284 284 284 284 284 284 283 282 283 283 283 284 283 282 280 279 278 279 278 277 277 276 275 275 275 275 275 275 275
282 282 284 282 286 283 283 284 284 285 284 285 285 284 284 284 284 284 284 284 283 282 282 282 283 282 282 282 280 278 278 278 277 276 276 275 275 274 273 273 273 273 273 272
286 282 285 286 287 286 286 286 286 286 286 286 286 285 285 285 284 284 284 284 283 282 282 282 282 281 280 279 278 278 277 276 275 274 274 273 273 272 272 271 271 271 271 270
285 286 287 288 289 288 288 287 287 286 285 285 285 284 284 284 284 284 284 283 282 282 282 281 280 280 279 278 278 276 275 274 273 272 272 271 271 270 270 270 271 270 270 270
Wind_Speed
12 12 12 11 10 5 1 2 7 4 1 12 4 1 1 10 17 22 23 25 30 31 28 29 31 30 34 32 33 34 32 28 29 30 29 27 26 26 26 27 32 37 42 43
7 11 6 3 7 3 1 3 7 5 3 7 4 6 4 1 10 14 18 22 25 31 34 33 34 35 33 34 35 33 34 32 28 28 29 30 30 30 31 29 29 34 41 43
11 4 4 4 8 7 3 6 7 5 11 1 10 3 8 4 3 15 19 20 21 23 28 33 35 35 35 35 36 35 34 33 31 29 28 30 30 29 31 31 33 33 38 44
8 4 5 5 5 8 3 7 10 8 6 2 6 3 8 5 5 12 20 22 22 25 26 27 30 32 34 36 34 35 33 31 32 31 29 28 30 34 31 30 35 34 35 42
2 2 5 4 4 6 3 14 7 3 3 3 1 3 4 3 5 11 17 19 21 21 23 26 27 28 29 33 35 36 35 32 30 32 29 28 28 30 35 35 32 41 33 42
5 1 1 4 8 6 13 2 3 3 2 3 4 4 4 3 2 6 13 18 20 21 21 22 24 26 28 31 37 39 37 34 32 30 30 29 27 28 31 33 33 36 41 38
1 1 1 3 3 3 9 1 1 2 2 3 5 6 7 7 6 3 9 13 17 19 20 22 25 26 28 30 33 39 39 37 34 31 28 29 29 26 26 28 28 29 42 33
1 3 2 3 3 2 6 4 3 4 3 4 3 6 3 8 7 2 5 8 13 18 19 20 22 23 24 27 29 33 38 40 37 34 31 28 29 28 25 24 24 24 31 28
2 3 1 0 2 2 2 3 2 2 2 3 4 5 10 9 9 6 4 10 12 15 17 18 19 21 24 27 28 29 33 37 39 36 34 33 31 29 26 23 22 20 21 35
4 1 2 3 2 4 2 6 1 2 2 5 4 8 9 11 12 7 5 7 10 12 16 16 18 21 23 26 27 29 30 33 36 38 36 35 35 31 28 24 23 18 15 23
3 1 3 1 6 6 4 3 2 1 2 3 5 6 5 10 10 8 5 7 8 11 13 17 19 19 21 23 25 27 29 31 33 36 38 37 36 35 32 28 25 21 14 13
2 1 3 1 3 2 0 3 5 3 4 4 3 10 3 8 10 11 9 13 11 12 15 18 18 20 21 22 23 25 26 29 30 31 34 36 36 35 36 34 31 25 19 11
6 2 3 2 2 1 5 8 7 2 1 10 4 7 1 9 12 15 16 23 18 19 16 15 16 19 21 21 21 23 24 25 28 30 32 32 35 36 37 36 35 31 25 19
6 3 6 5 2 3 4 7 15 9 5 6 16 22 25 14 13 20 25 23 24 17 17 18 17 19 21 21 21 21 22 23 24 26 29 32 34 34 36 36 35 35 31 26
4 5 5 13 15 14 13 14 15 22 22 10 20 17 23 14 14 28 28 24 21 18 17 17 18 19 21 21 21 21 21 22 23 23 25 26 28 32 35 34 35 34 32 31
3 2 1 5 10 12 15 19 21 25 25 28 34 32 34 40 31 22 20 19 21 19 19 18 20 21 24 23 21 20 20 21 22 22 23 24 25 26 27 33 36 35 34 33
7 4 0 5 3 9 9 16 21 13 11 19 21 26 20 17 18 19 17 18 22 22 20 20 22 23 25 24 22 20 20 20 21 22 22 23 23 24 25 25 26 32 35 34
6 5 1 5 4 6 2 4 3 20 13 20 18 21 19 18 21 21 21 20 21 22 22 19 21 26 26 25 23 20 19 19 20 21 22 23 23 24 24 25 25 23 26 30
12 6 3 4 4 11 10 4 6 8 7 20 22 25 26 22 11 18 15 19 23 22 19 19 26 29 27 25 23 21 19 19 19 22 23 25 27 26 24 24 25 26 24 21
12 11 7 3 5 7 3 4 6 5 8 8 16 17 18 4 7 8 17 23 23 18 20 27 27 26 27 26 24 22 21 21 20 21 22 24 26 28 28 25 25 25 25 25
7 9 17 11 7 10 13 8 5 2 5 1 7 11 9 7 17 20 31 27 23 23 28 28 29 31 29 26 25 23 22 22 22 23 24 24 25 26 29 32 28 26 26 25
11 12 7 9 7 13 20 10 9 4 6 5 12 18 19 24 29 28 30 25 24 26 29 30 28 27 25 25 25 24 22 22 23 25 26 27 27 28 28 30 33 31 27 25
5 8 7 13 10 2 21 10 17 18 22 24 24 28 26 25 25 23 27 28 32 26 25 22 20 22 23 22 23 22 22 22 24 26 28 30 31 30 29 28 29 29 28 24
7 9 4 1 9 23 30 34 35 40 38 39 36 33 28 28 29 32 28 31 31 28 24 22 21 21 20 18 20 22 23 25 26 28 29 31 32 31 28 25 24 25 24 22
5 12 9 17 22 32 33 39 39 34 31 33 35 36 35 33 35 33 31 33 29 24 21 17 14 13 15 17 19 22 24 26 27 29 30 29 27 27 26 24 21 20 20 19
15 13 11 13 26 25 24 24 26 31 33 39 37 35 35 32 35 30 30 29 23 19 16 13 12 13 15 18 20 23 25 27 28 28 26 25 23 22 21 21 20 17 18 18
Wind_Direction
35 69 56 40 43 67 54 316 320 343 109 334 17 96 81 30 28 20 16 7 359 360 357 356 357 355 354 351 339 332 326 321 319 315 311 297 282 262 248 254 252 246 246 247
96 66 41 52 23 358 66 340 15 294 314 329 332 300 188 138 42 28 15 8 1 353 354 355 356 357 357 353 351 342 332 327 323 318 314 311 300 282 266 247 243 252 246 247
81 71 356 26 27 22 51 19 347 311 314 301 307 211 218 213 305 7 13 7 1 358 350 350 353 355 356 355 353 351 343 332 326 319 314 310 304 295 284 260 253 255 247 247
67 36 32 32 44 1 19 2 323 314 322 4 350 302 227 247 312 356 1 3 358 353 350 348 350 352 354 355 352 351 353 341 331 326 319 315 310 306 297 283 248 247 249 247
98 67 34 36 347 340 328 331 305 297 253 296 49 273 158 232 270 350 355 354 353 351 348 347 347 348 350 353 353 353 353 352 341 332 329 322 315 307 300 294 278 244 246 250
94 109 322 350 308 275 317 323 154 177 217 242 131 3 238 219 225 334 346 353 353 351 350 349 347 349 350 354 356 357 356 354 352 343 338 331 323 317 311 303 290 260 242 252
95 104 34 348 300 262 352 214 220 244 253 308 155 292 279 183 175 336 336 338 348 350 350 351 351 351 351 353 356 358 359 358 356 353 345 339 330 324 319 310 300 284 243 259
200 224 182 9 32 353 11 359 26 293 292 309 268 231 309 180 185 282 306 319 340 350 350 350 351 350 350 353 356 359 360 1 1 358 355 349 342 334 329 322 307 291 262 265
189 171 148 103 95 289 43 60 38 97 64 282 256 265 259 199 222 247 305 340 336 342 346 345 348 352 354 355 359 359 2 3 3 1 2 360 353 344 339 335 325 304 264 244
148 203 181 132 166 78 7 142 167 86 299 280 248 279 265 214 229 247 297 309 322 329 337 337 343 348 355 357 359 1 5 7 6 5 8 6 5 357 349 351 343 327 280 256
141 262 133 248 199 180 155 174 116 40 248 276 299 264 220 230 206 225 278 290 305 314 322 328 333 339 343 349 353 359 1 4 7 6 8 9 9 9 2 359 359 352 334 290
149 106 239 166 113 326 272 203 194 221 193 237 278 269 248 226 220 227 264 303 301 304 309 315 320 328 334 338 345 351 357 2 5 5 7 7 10 12 13 8 6 4 358 356
174 190 295 185 141 59 225 200 206 135 155 220 214 258 172 214 231 242 266 305 298 302 298 302 305 314 323 330 336 341 346 353 357 360 4 5 7 11 15 15 13 12 8 9
158 193 239 251 54 96 200 202 207 199 217 232 230 271 278 265 266 278 291 295 297 290 292 296 302 305 313 319 325 331 337 343 349 353 357 359 4 6 11 14 16 18 20 19
194 247 215 266 271 257 254 245 217 217 221 233 266 264 272 285 295 293 295 289 288 282 283 285 296 302 305 311 315 320 327 334 340 347 350 354 358 1 3 7 13 16 19 25
167 254 106 271 273 263 261 257 239 239 244 250 259 271 268 281 284 277 287 287 281 279 280 284 295 299 301 303 304 309 316 325 331 336 342 347 352 356 1 1 2 7 13 16
167 203 292 266 2 305 263 243 222 216 221 228 246 249 275 274 276 281 292 291 284 278 278 285 297 297 293 295 298 301 307 316 325 330 334 339 344 349 353 357 360 360 2 6
151 151 212 286 321 252 10 242 197 207 235 224 248 259 257 261 281 292 288 282 287 276 273 285 303 304 294 288 291 293 298 309 317 324 328 331 336 339 343 346 350 355 358 358
191 170 213 264 241 309 276 144 161 183 265 244 238 253 262 271 279 281 299 309 308 292 267 293 306 299 296 280 283 285 290 299 309 317 320 323 327 331 333 335 338 341 344 348
206 201 206 147 248 257 62 138 147 161 281 265 217 245 255 214 261 295 320 307 306 282 268 307 305 297 294 280 276 278 286 294 303 311 315 317 320 322 325 328 329 330 330 331
171 203 217 218 258 279 256 196 143 220 311 282 209 231 233 233 267 293 314 300 295 290 282 296 295 293 290 277 273 272 279 289 299 308 312 313 315 316 318 320 322 321 320 318
173 175 192 208 236 270 202 130 205 260 275 267 275 282 277 281 280 294 302 299 302 300 297 292 290 289 289 276 269 269 275 286 297 304 307 311 313 314 314 313 314 316 315 311
231 203 186 197 210 244 191 225 237 280 282 282 279 283 283 283 281 288 291 301 309 307 306 300 290 286 284 271 262 265 275 285 294 300 305 308 311 312 312 311 310 311 312 311
239 194 239 295 212 243 250 258 267 281 277 286 287 283 282 278 283 297 289 304 306 306 301 297 293 285 275 262 261 268 280 290 296 301 304 306 308 310 311 312 310 309 310 310
191 153 219 255 266 274 265 262 273 283 286 285 289 288 285 287 285 291 287 298 297 295 295 294 291 278 266 263 269 279 287 294 298 301 304 306 307 309 311 313 315 310 307 308
209 224 226 252 262 258 277 287 283 286 286 287 286 284 280 278 283 286 285 289 287 288 289 288 281 276 275 278 284 289 292 296 300 303 305 306 309 311 312 313 315 313 310 310